Location: Cruquius
(52.3348°N, 4.6319°E)
Time: 07:30:13
(UTC+00:00)

Cosmos 1937 Rocket - Pass Details

Date: 12 May 2021
Orbit: 746 x 781 km, 74.0° (Epoch: 15 June)

Event Time Altitude Azimuth Distance (km) Brightness Sun altitude
Exits shadow 21:31:13 21° 141° (SE) 1,626 4.6 -14.1°
Maximum altitude 21:33:26 29° 101° (E) 1,343 4.4 -14.3°
Drops below altitude 10° 21:37:52 10° 42° (NE) 2,290 6.2 -14.6°
Sets 21:40:29 0° 32° (NNE) 3,225 7.1 -14.8°
